COSMOS 970 DEB, 64990

Orbit data source: Space-Track

COSMOS 970 DEB, 64990 is space debris in LEO originally from a launch on Wed, 21 Dec 1977 UTC launched from the Tyuratam Missile And Space Complex (TTMTR). Debris objects in space refer to the collection of defunct objects orbiting the Earth. Examples of debris include non-operational satellites, rocket bodies, and fragments generated from explosions, collisions, or faulty payload assembly.

Loading next visibility...
Identifier
64990, 1977-121DB
Orbit
LEO
Country
Flag of CISCIS
Related business
Manufacturer
Unknown
Mission
Spacecraft
Bus & Motor
Unknown
Mass
Unknown
Launch date (UTC)
1977-12-21 (48 years ago)
Launch vehicle
Unknown
Launch site
Tyuratam Missile And Space Complex (TTMTR)
Object type
Payload
Rocket body
Debris
Shape & HBR
Unknown shape, 0.1 m
Radar Cross Section
Medium (>0.1 m² and <1 m²)

Expand to show TLE details & history
Last TLE update: 11 hours ago

TLE from 11 hours ago
0 COSMOS 970 DEB
1 64990U 77121DB  26171.38316382  .00000277  00000-0  36321-3 0  9991
2 64990  65.8742  51.6301 0111004   7.9760 352.3034 13.74056348629989
Epoch: 2026-06-20T09:11Z
TLE epoch observation values (Epoch: 2026-06-20T09:11:45.354Z)
Latitude
-0°
Longitude
5.09255°
Altitude
906.043 km
Speed
7.44 km/s
True Right ascension
03h 26m 31s
True Declination
0° 00' 00"
Sunlit
Object was in daylight at epoch
Visualization orbit readout
Latitude
Unknown
Longitude
Unknown
Altitude
Unknown
Speed
Unknown
Apparent Right ascension
Unknown
Apparent Declination
Unknown
Sunlit
N/A
Visualization observer readout
Local Sidereal Time
07:14:49
Azimuth
Unknown
Elevation
Unknown
Doppler factor
Unknown
Orbital elements
Apogee altitude
1,065.275 km
Perigee altitude
901.839 km
Semi-major axis
7,361.694 km
Eccentricity
0.0111
Inclination
65.8742°
RAAN
51.6301°
Arg. of periapsis
7.976°
True anomaly
352.13067°
Mean anomaly
352.3034°
Eccentric anomaly
352.21727°
Mean motion
3.43619 °/min
Orbital period
104.77 mins
BSTAR
0.00036321
Loading maneuver chart data...
Computing Atmospheric mass density...
Loading historical data...
Loading historical data...
Loading historical data...
Loading historical data...
Loading historical data...
Loading historical data...
Loading historical data...

Documentation

Showing up to 5 results
|